AQI (35)

Current Conditions for Foresthill, CA. Dawn, Clear skies, Dry   
Visibility: 10 miles
Space WX Alerts: ALERT:  Geomagnetic K-index of 4 ( Latest Alert ) - Issue Time: 2021 Jan 12 0151 UTC

  Summary / Temperature 

Current Temperature
40.8°F
4.9°C
(24/hr Ago)
45.2°F
(Apparent temp)
32.5°F
Cool
Wind Chill Graphs
36.1°F 
Wind Chill-Avg
37.6°F 3.1°C
 --- Virtual Temp: 41.8°F ---

 Temp Rate:

 24/hr Difference:

 Avg Running Temp:

 Todays High:

 Todays Low:

 Y-days High:

 Y-days Low:

 Todays WChill:

 Y-days WChill:

 Evapotranspiration:

-0.4°F/hr 

-4.4°F

40.9°F

44.0°F 12:00am

40.5°F 6:09am

61.3°F 1:36pm

44.0°F 11:58pm

32.5°F 6:09am

36.9°F 2:51am

0.011 in

115' Above Ground

 Temperature:

 6'AGL VRS 115'AGL:

 Avg Running Temp:

 Humidity:

 Todays High:

 Todays Low:

 Y-days High:

 Y-days Low:

56.0°F 

+15.2°F

56.0°F

0% 

56.0°F 12:00am

56.0°F 12:00am

61.0°F 1:29pm

50.0°F 12:00am

Temp & Humidity Graphs

  Wind 

Wind Speed

 6.0 mph

Gusting to

 14.0 mph

Wind from ESE

102°  ESE

Light breeze

 Avg speed:

 Wind Run:

 Peak Gust:

  7.0 mph 

23.0 miles

  18.0 mph 2:28am

  Almanac  

Moon age: 8 days,1 hours,6 minutes,57%

Waxing Gibbous
57%
Illuminated
8 days in cycle

 Moonrise:

 Moonset:

 Sunrise:

 Sunset:

 Solar Noon:

11:59am

12:56am

7:15am

5:10pm

12:15pm

1min 40s more daylight tomorrow 

  Solar Radiation 

(Current Solar)
  No Sun Light
(Todays High)
 None@12:00am

Rain

 Rain Today:

 Rain Rate (/hr):

 Rain last hour:

 Rain Yesterday:

 This Month:

 Season Total:

7 Days Since Last Rain Day

0.00 in

0.000 in

0.00 in

0.00 in

0.91 in

9.09 in

Updated Time

Updated: 1/21/21  7:00am

(Updated  sec ago)

Humidity & Barometer

 Humidity:

 Wetbulb:

 Dew Point:

 Barometer:

55% 

35.7°F 

25.9°F 

30.119 inHg 

 Baro Trend:  Steady 
Northern Calif
Preparedness
Fire 
Level 

    UV Index  

(Current UV)
0.0  None
(Todays High) @ 12:00am
0.0   None

National Weather Service Forecast

Overnight

Overnight: Mostly Clear
Mostly Clear
Thursday

Thursday: Mostly Sunny
Mostly Sunny
Thursday
Night
Thursday Night: Mostly Cloudy then Chance Rain Showers
Mostly Cloudy
Friday

Friday: Rain Showers
Rain Showers
Friday
Night
Friday Night: Slight Chance Rain, Snow Showers
Slight Chance Rain, Snow Showers
Saturday

Saturday: Sunny
Sunny
Lo 41 °F Hi 55 °F ↓ Lo 37 °F Hi 42 °F Lo 33 °F Hi 48 °F

Foresthill Probe 2 Stats  
Foresthill Probe 2: is located on Thomas Street
at 3000 feet. The main Foresthill Weather site
is located on Melody ln at the 2860 foot elevation

Calm
39.2°F
4°C
Temp Rate:
-0.8°F
Calm
Gusting to
2.0 mph
(Humidity)
58%
Wind from ESE
111°  ESE
Updated: 21/01/21 - 07:00:36
 Todays High: 41.9°F 00:00
 Todays Low: 39.2°F 06:53
 Rain Today: 0.00 in
 Season Total: 9.37 in

Foresthill Wx: Monthly,Yearly, Highs and Lows 

Foresthill  
This Weather Data is coming from the main Foresthill
Weather site located on Melody ln at the 2860 foot
elevation
Not Foresthill Probe 2
Weather Data
Month
  High
Month
  Low
Year
High
Year
Low
Temp 71.0°F
1/17/21
35.1°F
1/1/21
71.0°F
1/17/21
35.1°F
1/1/21
Humidity 100%
1/3/21
12%
1/18/21
100%
1/3/21
12%
1/18/21
Heat Index 70.2°F
1/17/21
37.5°F
1/19/21
70.2°F
1/17/21
37.5°F
1/19/21
Wind Chill 71.0°F
1/17/21
24.3°F
1/5/21
71.0°F
1/17/21
24.3°F
1/5/21
Wind Gust 50 mph
1/19/21
0 mph
1/1/21
50 mph
1/19/21
0 mph
1/1/21
Barometer 30.47 in
1/13/21
29.95 in
1/18/21
30.47 in
1/13/21
29.95 in
1/18/21
ET 0.13 in
1/19/21
0.00 in
1/1/21
0.13 in
1/19/21
0.00 in
1/1/21
Dew Point 51.9°F
1/13/21
9.9°F
1/18/21
51.9°F
1/13/21
9.9°F
1/18/21
Visible Satellite Pacific Satellite US Radar Satellite Imagery Sacramento,CA.  (click to enlarge)
NWS Weather Forecast - Summary
Updated: Thursday, January 21, 2021 - 2:30am PST
NWS Weather Forecast: Overnight and Thursday (Updated: Thu, 21-Jan-2021 3:49am PST)
Overnight

Overnight: Mostly Clear
Mostly Clear

Lo 41 °F
NWS forecast: Mostly clear, with a low around 41. East wind around 6 mph.
Thursday

Thursday: Mostly Sunny
Mostly Sunny

Hi 55 °F ↓
NWS forecast: Mostly sunny. High near 55, with temperatures falling to around 49 in the afternoon. Southeast wind around 6 mph.
YR.NO 10 Day Weather forecast
Last update: 01/21/2021 @ 00:46
Next update: 01/21/2021 @ 06:59
Provided by: 22
      Temperature Precipitation Pressure Wind  
Today
01/21/2021
06:00 12:00 34°F   30.06 inHg Light breeze from east 6 mph
  12:00 18:00 55°F   30.04 inHg Light breeze from southwest 5 mph
  18:00 00:00 45°F   29.99 inHg Light air from east-southeast 2 mph
    (Click to enlarge)
meteogram

    Forecast for next 9 days

      Temperature Precip Pressure Wind  
Friday
01/22/2021
00:00 06:00 43°F   29.93 inHg Light breeze from east-southeast 5 mph
  06:00 12:00 36°F 0.09 in 29.90 inHg Light breeze from southeast 4 mph
  12:00 18:00 36°F 0.07 in 29.91 inHg Light breeze from south-southeast 6 mph
  18:00 00:00 36°F   29.88 inHg Light air from east-southeast 2 mph
      Temperature Precip Pressure Wind  
Saturday
01/23/2021
00:00 06:00 28°F   29.88 inHg Light air from east-northeast 3 mph
  06:00 12:00 28°F   29.90 inHg Light air from east-northeast 3 mph
  10:00 16:00 37°F   29.96 inHg Calm from southwest 0 mph
  16:00 22:00 43°F   29.90 inHg Light breeze from west-northwest 4 mph
  22:00 04:00 28°F   29.92 inHg Light breeze from east-northeast 7 mph
      Temperature Precip Pressure Wind  
Sunday
01/24/2021
04:00 10:00 25°F   29.90 inHg Light breeze from east-northeast 6 mph
  10:00 16:00 39°F 0.10 in 29.93 inHg Light breeze from south 7 mph
  16:00 22:00 36°F 0.40 in 29.84 inHg Gentle breeze from south-southwest 8 mph
  22:00 04:00 30°F 0.15 in 29.83 inHg Light breeze from south-southwest 5 mph
      Temperature Precip Pressure Wind  
Monday
01/25/2021
04:00 10:00 30°F 0.04 in 29.76 inHg Light air from west-southwest 3 mph
  10:00 16:00 30°F 0.05 in 29.79 inHg Light breeze from south-southwest 5 mph
  16:00 22:00 30°F < 0.01 in 29.76 inHg Light air from southwest 3 mph
  22:00 04:00 25°F 0.02 in 29.79 inHg Light air from east 3 mph
      Temperature Precip Pressure Wind  
Tuesday
01/26/2021
04:00 10:00 25°F < 0.01 in 29.81 inHg Light air from east 2 mph
  10:00 16:00 30°F   29.93 inHg Light air from south 1 mph
  16:00 22:00 34°F   29.91 inHg Light air from west-northwest 2 mph
  22:00 04:00 14°F   29.96 inHg Light breeze from east 5 mph
      Temperature Precip Pressure Wind  
Wednesday
01/27/2021
04:00 10:00 25°F 0.07 in 29.95 inHg Light breeze from east-southeast 7 mph
  10:00 16:00 30°F 0.41 in 29.90 inHg Gentle breeze from southeast 8 mph
  16:00 22:00 28°F 0.15 in 29.95 inHg Gentle breeze from south 8 mph
  22:00 04:00 28°F 0.06 in 30.03 inHg Light breeze from south-southeast 6 mph
      Temperature Precip Pressure Wind  
Thursday
01/28/2021
04:00 10:00 28°F < 0.01 in 30.07 inHg Light breeze from southeast 6 mph
  10:00 16:00 32°F 0.06 in 30.12 inHg Light breeze from south 5 mph
  16:00 22:00 32°F 0.09 in 30.13 inHg Light air from southeast 2 mph
  22:00 04:00 30°F 0.03 in 30.20 inHg Light breeze from east-southeast 5 mph
      Temperature Precip Pressure Wind  
Friday
01/29/2021
04:00 10:00 25°F   30.19 inHg Light breeze from east 5 mph
  10:00 16:00 36°F 0.21 in 30.15 inHg Light breeze from south-southeast 4 mph
  16:00 22:00 34°F 0.61 in 30.02 inHg Gentle breeze from south-southeast 12 mph
  22:00 04:00 36°F 0.79 in 29.93 inHg Moderate breeze from south-southeast 15 mph
      Temperature Precip Pressure Wind  
Saturday
01/30/2021
04:00 10:00 34°F 0.49 in 29.90 inHg Gentle breeze from south 12 mph

NOAA Local Storm Report
2 MILES EAST-SOUTHEAST OF NORTH AUBURN   ( More )
DATE
01/19/2021
TIME
1:09 PM
COUNTY
PLACER
STATE
CA
GEOGRAPHIC
38.92N 121.04W
SOURCE
LAW ENFORCEMENT
NON-THUNDERSTORM WIND DAMAGE
chp reports a tree down in the roadway near sr49 and el dorado street.
How Close Are We To this Month's Temperature Record ?
Updated Thursday, Jan 21, 2021- 7:00:00 AM

Current Temperature: 40.8°F

January's High: Temperature Record 71.3°F - Set on Sat, Jan 24, 2015 - 3:19:00 PM
We are currently 30.5°F Less than this Month's record High

January's Low: Temperature Record 24.7°F - Set on Sun, Jan 13, 2013 - 7:29:00 AM
We are currently 16.1°F More than this Month's record Low

Weather History For Thursday, January 21, 2021


On this Day - In Weather History ...
Data courtesy of weatherforyou.com
powered by Cumulus v1.9.3 (1059)
Ambient Weather VWS v14.00
Top Website Map Copyright © 2007 - 2021 Foresthillweather.com Never base important decisions on this or any weather information obtained from the Internet